Weather History for EIDW - June, 2013

Change the Weather History Date:

Monday, June 17, 2013

  Actual Average Record
Temperature  
Mean Temperature 55 °F -  
Max Temperature 60 °F 65 °F 73 °F (2006)
Min Temperature 50 °F 51 °F 41 °F (1997)
Degree Days  
Heating Degree Days 10    
Growing Degree Days 5 (Base 50)    
Moisture  
Dew Point 52 °F    
Average Humidity 90    
Maximum Humidity 100    
Minimum Humidity 69    
Precipitation  
Precipitation 0.08 in 0.07 in - ()
Sea Level Pressure  
Sea Level Pressure 30.00 in    
Wind  
Wind Speed 9 mph ()    
Max Wind Speed 12 mph    
Max Gust Speed -    
Visibility 6.3 miles    
Events Rain    
Averages and records for this station are not official NWS values.
T = Trace of Precipitation, MM = Missing Value Source: Averaged Metar Reports

Daily Weather History Graph

Daily Weather History Graph

Search for Another Location

Airport or City:

Trip Planner

Search our weather history database for the weather conditions in past years. The results will help you decide how hot, cold, wet, or windy it might be!

Date:

Astronomy

Jun. 17, 2013 Rise Set
Actual Time 4:55 AM IST 9:56 PM IST
Civil Twilight 4:03 AM IST 10:49 PM IST
Nautical Twilight 2:28 AM IST 12:23 AM IST
Astronomical Twilight Sun does not set Sun does not set
Moon 2:32 PM IST (6/17) 1:17 AM IST (6/17)
Length of Visible Light 18h 45m
Length of Day
17h 00m
First Quarter, 58% of the Moon is Illuminated
Jun 17
First Quarter
Jun 23
Full
Jun 30
Last Quarter
Jul 8
New
Jul 16
First Quarter

Hourly Weather History & Observations

Time (IST) Temp. Dew Point Humidity Pressure Visibility Wind Dir Wind Speed Gust Speed Precip Events Conditions
12:00 AM 51.8 °F 51.8 °F 100% 29.95 in 5.0 mi East 10.4 mph - N/A Rain Rain
12:30 AM 51.8 °F 51.8 °F 100% 29.95 in 5.0 mi East 9.2 mph - N/A Rain Light Rain
1:00 AM 52 °F 52 °F 98% 29.97 in 5 mi East 11.2 mph - - Rain Light Rain
1:00 AM 51.8 °F 51.8 °F 100% 29.95 in 5.0 mi East 11.5 mph - N/A Rain Light Rain
1:30 AM 51.8 °F 51.8 °F 100% 29.95 in 5.0 mi East 11.5 mph - N/A Rain Light Rain
2:00 AM 51.8 °F 51.8 °F 100% 29.95 in 5.0 mi East 10.4 mph - N/A Rain Light Rain
2:30 AM 51.8 °F 50.0 °F 94% 29.95 in 5.0 mi East 11.5 mph - N/A Rain Light Rain
3:00 AM 51.8 °F 50.0 °F 94% 29.95 in 6.2 mi East 11.5 mph - N/A Rain Light Rain
3:30 AM 51.8 °F 50.0 °F 94% 29.95 in 6.2 mi East 11.5 mph - N/A   Mostly Cloudy
4:00 AM 51.8 °F 50.0 °F 94% 29.95 in 6.2 mi East 11.5 mph - N/A   Mostly Cloudy
4:30 AM 51.8 °F 50.0 °F 94% 29.95 in 6.2 mi ENE 11.5 mph - N/A Rain Light Rain
5:00 AM 51.8 °F 50.0 °F 94% 29.95 in 6.2 mi ENE 10.4 mph - N/A Rain Light Rain
5:30 AM 51.8 °F 50.0 °F 94% 29.95 in 6.2 mi ENE 9.2 mph - N/A   Mostly Cloudy
6:00 AM 51.8 °F 50.0 °F 94% 29.98 in 6.2 mi ENE 10.4 mph - N/A   Mostly Cloudy
6:30 AM 51.8 °F 50.0 °F 94% 29.98 in 6.2 mi ENE 10.4 mph - N/A   Mostly Cloudy
7:00 AM 52 °F 51 °F 95% 30.00 in 11 mi ENE 8.9 mph - - Rain Light Rain
7:00 AM 51.8 °F 51.8 °F 100% 29.98 in 6.2 mi ENE 9.2 mph - N/A Rain Light Rain
7:30 AM 51.8 °F 50.0 °F 94% 29.98 in 6.2 mi ENE 10.4 mph - N/A Rain Light Rain
8:00 AM 51.8 °F 50.0 °F 94% 30.01 in 5.6 mi ENE 8.1 mph - N/A Rain Light Rain
8:30 AM 51.8 °F 50.0 °F 94% 30.01 in 4.3 mi ENE 9.2 mph - N/A Rain Light Rain
9:00 AM 51.8 °F 51.8 °F 100% 30.01 in 5.6 mi ENE 9.2 mph - N/A Rain Light Rain
9:30 AM 51.8 °F 51.8 °F 100% 30.01 in 6.2 mi NE 10.4 mph - N/A Rain Light Rain
10:00 AM 53.6 °F 51.8 °F 94% 30.01 in 6.2 mi NE 10.4 mph - N/A Rain Light Rain
10:30 AM 53.6 °F 51.8 °F 94% 30.01 in 6.2 mi ENE 10.4 mph - N/A   Overcast
11:00 AM 53.6 °F 51.8 °F 94% 30.01 in 6.2 mi NE 9.2 mph - N/A   Overcast
11:30 AM 53.6 °F 51.8 °F 94% 30.01 in 6.2 mi ENE 10.4 mph - N/A   Overcast
12:00 PM 53.6 °F 51.8 °F 94% 30.01 in 6.2 mi East 9.2 mph - N/A   Overcast
12:30 PM 55.4 °F 53.6 °F 94% 30.01 in 5.6 mi East 9.2 mph - N/A Rain Light Rain
1:00 PM 57.2 °F 53.6 °F 88% 30.01 in 6.2 mi NE 9.2 mph - N/A   Mostly Cloudy
1:30 PM 57.2 °F 53.6 °F 88% 30.01 in 6.2 mi ENE 10.4 mph - N/A   Mostly Cloudy
2:00 PM 57.2 °F 53.6 °F 88% 30.04 in 6.2 mi ENE 9.2 mph - N/A   Mostly Cloudy
2:30 PM 59.0 °F 53.6 °F 82% 30.04 in 6.2 mi ENE 10.4 mph - N/A   Mostly Cloudy
3:00 PM 59.0 °F 53.6 °F 82% 30.04 in 6.2 mi ENE 10.4 mph - N/A   Mostly Cloudy
3:30 PM 57.2 °F 53.6 °F 88% 30.04 in 6.2 mi ENE 9.2 mph - N/A   Mostly Cloudy
4:00 PM 57.2 °F 53.6 °F 88% 30.04 in 6.2 mi NE 9.2 mph - N/A   Mostly Cloudy
4:30 PM 59.0 °F 55.4 °F 88% 30.01 in 6.2 mi NE 9.2 mph - N/A   Mostly Cloudy
5:00 PM 59.0 °F 51.8 °F 77% 30.01 in 6.2 mi NE 9.2 mph - N/A   Mostly Cloudy
5:30 PM 59.0 °F 53.6 °F 82% 30.01 in 6.2 mi NE 10.4 mph - N/A   Partly Cloudy
6:00 PM 60.8 °F 51.8 °F 72% 30.01 in 6.2 mi ENE 10.4 mph - N/A   Partly Cloudy
6:30 PM 59.0 °F 51.8 °F 77% 30.01 in 6.2 mi NE 8.1 mph - N/A   Partly Cloudy
7:00 PM 59 °F 51 °F 69% 30.03 in 19 mi ENE 8.9 mph - -   Scattered Clouds
7:00 PM 59.0 °F 51.8 °F 77% 30.01 in 6.2 mi ENE 8.1 mph - N/A   Partly Cloudy
7:30 PM 59.0 °F 51.8 °F 77% 30.01 in 6.2 mi NE 8.1 mph - N/A   Partly Cloudy
8:00 PM 57.2 °F 51.8 °F 82% 30.01 in 6.2 mi NE 6.9 mph - N/A   Partly Cloudy
8:30 PM 57.2 °F 51.8 °F 82% 30.01 in 6.2 mi NNE 8.1 mph - N/A   Partly Cloudy
9:00 PM 55.4 °F 51.8 °F 88% 30.04 in 6.2 mi NNE 8.1 mph - N/A   Mostly Cloudy
9:30 PM 55.4 °F 51.8 °F 88% 30.04 in 6.2 mi NE 6.9 mph - N/A   Mostly Cloudy
10:00 PM 53.6 °F 50.0 °F 88% 30.04 in 6.2 mi NNE 5.8 mph - N/A   Mostly Cloudy
10:30 PM 53.6 °F 50.0 °F 88% 30.04 in 6.2 mi North 4.6 mph - N/A   Scattered Clouds
11:00 PM 53.6 °F 50.0 °F 88% 30.01 in 6.2 mi Variable 3.5 mph - N/A   Partly Cloudy
11:30 PM 51.8 °F 50.0 °F 94% 30.01 in 6.2 mi NE 4.6 mph - N/A   Partly Cloudy